Lake of Egypt Weather Center

Moon Phase Calendar



Lake of Egypt Water Level
Online Cameras

 


      

Current Conditions in Goreville
6/23/2024 12:10:36 PM

85°F
Feels Like 92
Clouds
Humidity
70%
Pressure
29.88"
Wind
6.9 mph (WNW)
Dew Point
74°F
UV Index
5/10 (Moderate)
Visibility
6 mi

Hourly Forecast

Date & Time Sun, Jun 23
12:00 PM
Sun, Jun 23
1:00 PM
Sun, Jun 23
2:00 PM
Sun, Jun 23
3:00 PM
Sun, Jun 23
4:00 PM
Sun, Jun 23
5:00 PM
Sun, Jun 23
6:00 PM
Sun, Jun 23
7:00 PM
Sun, Jun 23
8:00 PM
Sun, Jun 23
9:00 PM
Sun, Jun 23
10:00 PM
Sun, Jun 23
11:00 PM
Mon, Jun 24
12:00 AM
Mon, Jun 24
1:00 AM
Mon, Jun 24
2:00 AM
Mon, Jun 24
3:00 AM
Mon, Jun 24
4:00 AM
Mon, Jun 24
5:00 AM
Mon, Jun 24
6:00 AM
Mon, Jun 24
7:00 AM
Mon, Jun 24
8:00 AM
Mon, Jun 24
9:00 AM
Mon, Jun 24
10:00 AM
Mon, Jun 24
11:00 AM
Mon, Jun 24
12:00 PM
Mon, Jun 24
1:00 PM
Mon, Jun 24
2:00 PM
Mon, Jun 24
3:00 PM
Mon, Jun 24
4:00 PM
Mon, Jun 24
5:00 PM
Mon, Jun 24
6:00 PM
Mon, Jun 24
7:00 PM
Mon, Jun 24
8:00 PM
Mon, Jun 24
9:00 PM
Mon, Jun 24
10:00 PM
Mon, Jun 24
11:00 PM
Tue, Jun 25
12:00 AM
Tue, Jun 25
1:00 AM
Tue, Jun 25
2:00 AM
Tue, Jun 25
3:00 AM
Tue, Jun 25
4:00 AM
Tue, Jun 25
5:00 AM
Tue, Jun 25
6:00 AM
Tue, Jun 25
7:00 AM
Tue, Jun 25
8:00 AM
Tue, Jun 25
9:00 AM
Tue, Jun 25
10:00 AM
Tue, Jun 25
11:00 AM
Condition
Clouds

Clouds

Clouds

Clouds

Clouds

Clouds

Clouds

Clouds

Clear

Clear

Clear

Clear

Clear

Clear

Clear

Clear

Clear

Clear

Clear

Clear

Clear

Clear

Clear

Clear

Clear

Clear

Clouds

Clouds

Clouds

Clouds

Clouds

Clouds

Clouds

Clouds

Clouds

Clouds

Clouds

Clouds

Clear

Clouds

Clouds

Clouds

Clouds

Clouds

Clouds

Clouds

Clouds

Clouds
Temperature 85°F85°F86°F87°F88°F88°F86°F82°F77°F74°F73°F71°F70°F69°F68°F67°F67°F66°F66°F70°F74°F77°F80°F82°F85°F86°F87°F88°F87°F87°F86°F83°F78°F76°F76°F75°F74°F73°F72°F72°F72°F71°F71°F73°F77°F81°F84°F88°F
Feels Like 92°F92°F93°F92°F92°F91°F90°F86°F78°F75°F73°F72°F71°F70°F69°F68°F68°F67°F67°F70°F75°F78°F82°F84°F86°F88°F89°F89°F89°F89°F90°F87°F79°F77°F76°F75°F74°F73°F73°F72°F72°F72°F72°F74°F77°F84°F89°F95°F
Cloudiness 75%71%85%89%89%88%69%57%3%2%1%1%1%1%1%1%1%0%0%0%0%1%2%4%3%9%16%28%48%55%57%64%24%17%18%17%16%16%7%33%55%66%73%78%100%100%100%100%
Visibility 6 mi6 mi6 mi6 mi6 mi6 mi6 mi6 mi6 mi6 mi6 mi6 mi6 mi6 mi6 mi6 mi6 mi6 mi6 mi6 mi6 mi6 mi6 mi6 mi6 mi6 mi6 mi6 mi6 mi6 mi6 mi6 mi6 mi6 mi6 mi6 mi6 mi6 mi6 mi6 mi6 mi6 mi6 mi6 mi6 mi6 mi6 mi6 mi
Precipitation 0%0%0%0%0%0%0%0%0%0%0%0%0%0%0%0%0%0%0%0%0%0%0%0%0%0%0%0%0%0%0%0%0%0%0%0%0%0%0%0%0%0%0%0%0%0%0%0%
Humidity 70%67%63%58%53%52%57%65%74%76%79%82%86%89%91%92%94%94%94%87%76%66%59%54%50%48%47%47%49%51%58%68%73%71%71%72%72%75%78%77%77%78%79%80%75%69%64%61%
Dew Point 74°F73°F72°F70°F68°F68°F69°F69°F68°F66°F66°F66°F66°F66°F65°F65°F65°F65°F64°F66°F66°F65°F65°F64°F64°F64°F65°F65°F66°F67°F69°F71°F69°F67°F66°F65°F65°F65°F65°F64°F64°F64°F65°F66°F68°F69°F71°F72°F
Pressure 29.88"29.88"29.85"29.85"29.83"29.83"29.83"29.85"29.85"29.85"29.88"29.91"29.91"29.91"29.91"29.91"29.94"29.94"29.94"29.97"29.97"30"30"29.97"29.97"29.97"29.94"29.94"29.91"29.91"29.88"29.88"29.88"29.88"29.91"29.88"29.88"29.88"29.88"29.88"29.88"29.91"29.91"29.91"29.91"29.91"29.91"29.91"
Wind Speed 11 mph10.6 mph10.6 mph10.9 mph10.4 mph9.8 mph8.7 mph8.1 mph7 mph6.5 mph6.4 mph6.6 mph6.3 mph5.6 mph5.6 mph5.1 mph4.4 mph5.1 mph5.1 mph4.1 mph5.5 mph5.3 mph5.3 mph5.1 mph5 mph5.2 mph5.8 mph6.1 mph6.2 mph5.8 mph5.2 mph5.9 mph6.7 mph7.3 mph7.3 mph7.4 mph7.7 mph7.4 mph7.4 mph7.5 mph8.1 mph8.2 mph8.6 mph8.6 mph10.7 mph11.8 mph12.1 mph11 mph
Wind
Direction
303°
WNW
309°
NW
309°
NW
310°
NW
323°
NW
340°
NNW
351°
N
351°
N
351°
N

N

N
10°
N
22°
NNE
31°
NNE
38°
NE
47°
NE
62°
ENE
68°
ENE
75°
ENE
89°
E
92°
E
101°
E
117°
ESE
133°
SE
152°
SSE
170°
S
180°
S
187°
S
191°
S
185°
S
169°
S
150°
SSE
145°
SE
149°
SSE
147°
SSE
154°
SSE
153°
SSE
159°
SSE
165°
SSE
168°
SSE
176°
S
180°
S
182°
S
186°
S
193°
SSW
202°
SSW
209°
SSW
216°
SW

Daily Forecast

Date High Low Precip. Humidity
Today
Jun 23

Rain
88 °F
71 °F
64%
70%
Monday
Jun 24

Clear
88 °F
66 °F
0%
50%
Tuesday
Jun 25

Rain
94 °F
68 °F
100%
57%
Wednesday
Jun 26

Rain
86 °F
68 °F
100%
67%
Thursday
Jun 27

Clouds
77 °F
58 °F
0%
47%
Friday
Jun 28

Clouds
84 °F
59 °F
0%
46%
Saturday
Jun 29

Rain
78 °F
68 °F
98%
85%
Sunday
Jun 30

Clear
83 °F
61 °F
0%
48%
Monday
Jul 1

Clouds
88 °F
63 °F
0%
54%
Tuesday
Jul 2

Rain
92 °F
74 °F
100%
68%
Wednesday
Jul 3

Rain
94 °F
72 °F
100%
52%
Thursday
Jul 4

Rain
97 °F
70 °F
100%
51%
Friday
Jul 5

Clouds
97 °F
78 °F
0%
46%
Saturday
Jul 6

Clear
96 °F
77 °F
0%
46%
Sunday
Jul 7

Clouds
97 °F
77 °F
0%
43%
Monday
Jul 8

Rain
93 °F
76 °F
93%
48%

Temperature 8-14 Day Outlook



Precipitation 8-14 Day Outlook






About Us
Contact Us
Site Map
Search Site
Advertise With Us
   
Egypt.USLakes.info
THE LAKE OF EGYPT WEBSITE

Copyright 2024, Lakes Online
Privacy    |    Legal